Anza Borrego Desert State Park, California Weather observations

Data are for 10 minute period ending at time listed.
 Day   Time   Solar   Ave.   Ave.  Ave.  Vector  Max.   Baro.   Total    
  of    of     Rad.   Air    Rel.  Wind   Wind   Wind  Press.  Precip.   
Year   Day            Temp.  Hum.  Speed  Dir.   Gust                    
2026   (PST)  Kw/m2    F      %     mph   deg.    mph    mb.     in.     
-------------------------------------------------------------------------
 124   17:40   0.06   66.8    36    3.7   319     9.6   982.8    0.00 
 124   17:50   0.06   66.8    36    1.4   177     6.1   982.9    0.00 
 124   18:00   0.04   66.3    37    5.5   345    15.8   982.6    0.00 
 124   18:10   0.04   65.5    38   12.9   340    19.3   982.6    0.00 
 124   18:20   0.02   65.2    38    9.1   334    17.1   982.7    0.00 
 124   18:30   0.01   64.9    38    6.8   360    24.9   982.8    0.00 
 124   18:40   0.00   64.7    39    9.1   342    21.0   982.8    0.00 
 124   18:50   0.00   64.5    39   10.4   332    18.3   982.8    0.00 
 124   19:00   0.00   64.4    39    4.9   326    14.0   983.0    0.00 
 124   19:10   0.00   64.1    41    7.2   328    12.0   983.2    0.00 
 124   19:20   0.00   64.0    40    5.3   283    12.3   983.3    0.00 
 124   19:30   0.00   63.6    41    2.5   268     6.3   983.4    0.00 
 124   19:40   0.00   63.3    42    4.0   303     8.8   983.5    0.00 
 124   19:50   0.00   63.2    42    5.2   314    11.8   983.7    0.00 
 124   20:00   0.00   63.4    42    4.1   311    12.4   983.7    0.00 
 124   20:10   0.00   63.0    44    3.5   307    12.6   984.0    0.00 
 124   20:20   0.00   62.9    43    2.4   331    10.4   984.0    0.00 
 124   20:30   0.00   62.6    44    5.6   242    14.3   984.0    0.00 
 124   20:40   0.00   62.2    46   11.8   220    18.3   983.9    0.00 
 124   20:50   0.00   62.2    45    6.3   246    14.0   983.9    0.00 
 124   21:00   0.00   62.4    44    6.1   264    10.8   983.8    0.00 
 124   21:10   0.00   62.7    43   11.7   294    22.7   983.8    0.00 
 124   21:20   0.00   62.8    43    6.8   281    15.3   983.9    0.00 
 124   21:30   0.00   62.3    45    8.4   282    17.6   983.9    0.00 
 124   21:40   0.00   62.0    46    8.7   314    18.5   983.9    0.00 
 124   21:50   0.00   61.8    47    6.9   322    17.4   983.8    0.00 
 124   22:00   0.00   61.6    48    7.8   298    15.3   983.6    0.00 
 124   22:10   0.00   60.9    50    6.6   222    12.9   983.6    0.00 
 124   22:20   0.00   60.9    50    6.5   264    13.4   983.6    0.00 
 124   22:30   0.00   61.1    49    5.5   250    10.7   983.5    0.00 
 124   22:40   0.00   60.7    50    2.5   330     8.1   983.4    0.00 
 124   22:50   0.00   60.7    50    1.8    67     3.4   983.4    0.00 
 124   23:00   0.00   60.4    50    3.3    97     4.5   983.3    0.00 
 124   23:10   0.00   59.7    51    3.4    78     4.7   983.3    0.00 
 124   23:20   0.00   60.4    50    2.5    66     4.6   983.3    0.00 
 124   23:30   0.00   60.4    50    1.6   151     4.1   983.3    0.00 
 124   23:40   0.00   60.2    50    8.0   222    24.9   983.3    0.00 
 124   23:50   0.00   60.9    49    5.8   284     9.9   983.3    0.00 
 125    0:00   0.00   60.7    49    4.1   314     8.3   983.3    0.00 
 125    0:10   0.00   60.4    49    3.1   238     5.6   983.3    0.00 
 125    0:20   0.00   60.0    49    1.9   207     3.7   983.2    0.00 
 125    0:30   0.00   59.8    49    2.9   330     8.9   983.1    0.00 
 125    0:40   0.00   59.9    48    4.1   269     9.1   982.9    0.00 
 125    0:50   0.00   60.4    48    6.3   247    14.2   982.9    0.00 
 125    1:00   0.00   60.3    49    4.7   289     8.4   982.8    0.00 
 125    1:10   0.00   60.5    49    6.7   302    10.7   982.6    0.00 
 125    1:20   0.00   60.7    48    9.1   337    14.7   982.4    0.00 
 125    1:30   0.00   61.0    48    5.0   313     8.5   982.3    0.00 
 125    1:40   0.00   61.0    48    3.0   286     8.6   982.2    0.00 
 125    1:50   0.00   59.8    50    6.1   180     7.7   982.2    0.00 
 125    2:00   0.00   58.7    52    5.4   185     6.4   982.1    0.00 
 125    2:10   0.00   59.0    52    3.8   123     6.5   982.1    0.00 
 125    2:20   0.00   59.1    53    5.1   100     9.9   982.1    0.00 
 125    2:30   0.00   59.0    53    2.6   110     5.0   982.1    0.00 
 125    2:40   0.00   59.1    53    3.6   184     8.5   982.1    0.00 
 125    2:50   0.00   59.4    53    4.7   303    10.6   982.0    0.00 
 125    3:00   0.00   59.1    54    2.5   315     4.8   982.1    0.00 
 125    3:10   0.00   58.6    54    1.4   236     3.3   982.1    0.00 
 125    3:20   0.00   58.5    57    3.1   188     4.3   982.0    0.00 
 125    3:30   0.00   57.5    59    2.1   230     3.0   982.0    0.00 
 125    3:40   0.00   58.1    57    3.3    92     7.2   981.9    0.00 
 125    3:50   0.00   58.1    56    4.9    95     7.7   981.8    0.00 
 125    4:00   0.00   57.6    56    5.0    89     7.1   981.7    0.00 
 125    4:10   0.00   57.2    57    2.1    42     5.0   981.7    0.00 
 125    4:20   0.00   56.4    58    1.7   353     2.8   981.6    0.00 
 125    4:30   0.00   55.5    60    5.4   206     8.2   981.8    0.00 
 125    4:40   0.00   56.3    59    4.1   216     6.7   981.7    0.00 
 125    4:50   0.00   55.8    59    4.9   189     7.0   981.8    0.00 
 125    5:00   0.01   56.8    58    7.6   164    11.0   981.8    0.00 
 125    5:10   0.01   57.8    56    7.7   177    10.7   981.9    0.00 
 125    5:20   0.02   57.8    56    6.2   190     8.3   982.1    0.00 
 125    5:30   0.07   58.7    54    3.1   128     6.7   982.0    0.00 
 125    5:40   0.11   59.9    52    3.6    47     5.7   982.2    0.00 
 125    5:50   0.17   60.1    52    3.8   344     5.3   982.5    0.00 
 125    6:00   0.23   61.6    49    1.8    79     3.1   982.5    0.00 
 125    6:10   0.29   62.8    47    2.2   157     3.7   982.5    0.00 
 125    6:20   0.31   63.8    44    2.2   255     6.1   982.5    0.00 
 125    6:30   0.18   64.0    42    4.5   253    12.3   982.7    0.00 
 125    6:40   0.16   63.1    43    5.2   290    12.3   982.7    0.00 
 125    6:50   0.23   63.1    43    9.1   284    14.4   982.6    0.00 
 125    7:00   0.30   63.8    42    9.2   275    13.7   982.7    0.00 
 125    7:10   0.30   64.0    42    8.3   275    11.8   982.8    0.00 
 125    7:20   0.44   64.1    43    7.7   262    12.6   982.9    0.00 
 125    7:30   0.34   64.1    44    7.0   293    10.4   982.9    0.00 
 125    7:40   0.45   64.5    43    5.5   333     8.0   982.9    0.00 
 125    7:50   0.61   65.6    41    6.9   316    11.6   983.1    0.00 
 125    8:00   0.42   65.2    41    5.9   304     9.5   983.2    0.00 
 125    8:10   0.66   66.0    41    3.2   335     7.7   983.2    0.00 
 125    8:20   0.65   66.0    41    3.3     3     6.7   983.2    0.00 
 125    8:30   0.47   66.3    40    4.5    18    10.3   983.2    0.00 
 125    8:40   0.87   66.9    39    7.8    10    15.1   983.1    0.00 
 125    8:50   0.50   66.8    40   10.2   359    15.5   983.3    0.00 
 125    9:00   0.61   66.1    42    8.8   357    15.2   983.4    0.00 
 125    9:10   0.56   66.3    40    8.6    10    15.4   983.5    0.00 
 125    9:20   0.56   66.9    39    7.9    22    14.4   983.5    0.00 
 125    9:30   0.59   66.6    39    7.9   350    18.8   983.7    0.00 
 125    9:40   0.52   67.0    38    6.5   332    13.0   983.9    0.00 
 125    9:50   0.45   66.1    39    6.4   313    14.6   983.9    0.00 
 125   10:00   0.50   66.5    38    7.9   337    19.4   983.9    0.00 
 125   10:10   0.46   66.3    38    8.4   307    18.8   984.1    0.00 
 125   10:20   0.63   67.0    38    8.5   250    15.2   984.2    0.00 
 125   10:30   0.80   67.6    37    6.3   235    16.3   984.4    0.00 
 125   10:40   0.78   67.4    37    8.6   330    15.7   984.3    0.00 
 125   10:50   0.56   66.6    38    7.8   311    15.7   984.4    0.00 
 125   11:00   0.63   66.1    38    7.0   325    15.4   984.4    0.00 
 125   11:10   0.83   66.8    36    6.9   316    13.0   984.4    0.00 
 125   11:20   0.99   68.2    34    6.7   336    12.1   984.3    0.00 
 125   11:30   0.94   68.5    33    6.8   261    16.0   984.3    0.00 
 125   11:40   0.92   69.2    32    9.2   318    20.4   984.2    0.00 
 125   11:50   0.72   68.5    34    9.3   322    20.1   984.1    0.00 
 125   12:00   0.88   69.2    31    6.2   228    14.8   984.0    0.00 
 125   12:10   0.83   69.2    31    9.9   228    24.9   983.9    0.00 
 125   12:20   1.11   69.8    30    6.8   275    17.6   983.8    0.00 
 125   12:30   1.03   70.8    29    4.6   287    12.4   983.8    0.00 
 125   12:40   1.04   70.8    28   14.1   248    25.3   983.8    0.00 
 125   12:50   1.04   70.9    28    8.8   232    19.1   983.8    0.00 
 125   13:00   1.00   71.5    27    7.8   280    20.5   983.8    0.00 
 125   13:10   1.03   70.2    28    4.8   325    11.8   983.8    0.00 
 125   13:20   0.92   71.8    27    7.0   218    17.2   983.7    0.00 
 125   13:30   0.98   70.8    28   11.8   242    24.1   983.6    0.00 
 125   13:40   0.92   70.4    28   10.4   251    19.4   983.5    0.00 
 125   13:50   0.89   70.4    26    9.5   254    20.5   983.4    0.00 
 125   14:00   0.86   70.9    27   15.6   235    33.1   983.2    0.00 
 125   14:10   0.84   70.2    27   17.1   248    24.6   983.1    0.00 
 125   14:20   0.81   70.5    26    9.6   249    24.3   983.1    0.00 
 125   14:30   0.79   70.7    26   16.2   244    27.6   982.9    0.00 
 125   14:40   0.76   70.3    26   14.1   236    26.8   983.0    0.00 
 125   14:50   0.73   70.4    25   16.1   238    26.1   982.9    0.00 
 125   15:00   0.70   69.9    26   13.8   252    29.2   982.7    0.00 
 125   15:10   0.67   70.1    27   14.5   258    25.3   982.5    0.00 
 125   15:20   0.64   69.8    27   15.9   233    25.4   982.5    0.00 
 125   15:30   0.61   69.6    29   14.4   241    24.2   982.5    0.00 
 125   15:40   0.57   69.7    30   18.7   227    25.7   982.3    0.00 
 125   15:50   0.54   69.1    31   20.2   228    28.6   982.2    0.00 
 125   16:00   0.51   69.1    30   21.2   224    30.0   981.9    0.00 
 125   16:10   0.47   68.9    30   20.4   226    32.1   981.9    0.00 
 125   16:20   0.44   69.2    30   18.3   244    30.8   981.8    0.00 
 125   16:30   0.40   69.0    30   19.1   244    30.2   981.6    0.00 
 125   16:40   0.36   68.8    30   17.9   260    26.8   981.6    0.00 
 125   16:50   0.32   68.6    30   18.0   262    27.5   981.5    0.00 
 125   17:00   0.29   69.0    29   13.0   267    23.2   981.5    0.00 
 125   17:10   0.25   69.3    29   11.5   265    19.8   981.6    0.00 
 125   17:20   0.20   68.7    30    9.0   266    18.7   981.6    0.00 
 125   17:30   0.03   67.8    30    7.6   294    17.9   981.7    0.00 

Return to Anza Borrego Desert State Park graphs page.


Western Regional Climate Center,wrcc@dri.edu